• In Deutschland
  • Länderverzeichnis
  • Für 7 Tage
  • Wassertemperatur
  • Satellitenkarten
  • Wetterkarte
  • Widgets
  • user-avatar
    Anmelden

    Stündliche Wetter Gamboma

    Heute, 17 Januar, Mittwoch

    Zeit Temperatur Niederschläge Wind Luftdruck Luftfeuchtigkeit
    00:00 +28°C° 0 mm 1 m/S 727 mmHg 57%
    01:00 +27°C° 0 mm 1 m/S 727 mmHg 64%
    02:00 +27°C° 0 mm 1 m/S 727 mmHg 66%
    03:00 +26°C° 0 mm 1 m/S 727 mmHg 68%
    04:00 +26°C° 0 mm 1 m/S 727 mmHg 70%
    05:00 +26°C° 0 mm 1 m/S 727 mmHg 69%
    06:00 +27°C° 0 mm 1 m/S 728 mmHg 69%
    07:00 +25°C° 0 mm 0 m/S 728 mmHg 68%
    08:00 +28°C° 0,3 mm 0 m/S 728 mmHg 61%
    09:00 +31°C° 0,3 mm 0 m/S 728 mmHg 54%
    10:00 +33°C° 0,3 mm 0 m/S 729 mmHg 46%
    11:00 +35°C° 0,6 mm 1 m/S 728 mmHg 46%
    12:00 +35°C° 0,6 mm 1 m/S 727 mmHg 45%
    13:00 +34°C° 0,6 mm 1 m/S 727 mmHg 44%
    14:00 +34°C° 0,1 mm 1 m/S 726 mmHg 44%
    15:00 +35°C° 0,1 mm 2 m/S 725 mmHg 44%
    16:00 +35°C° 0,1 mm 2 m/S 725 mmHg 44%
    17:00 +34°C° 0 mm 2 m/S 725 mmHg 49%
    18:00 +31°C° 0 mm 2 m/S 725 mmHg 54%
    19:00 +30°C° 0 mm 2 m/S 726 mmHg 59%
    20:00 +29°C° 0 mm 2 m/S 726 mmHg 61%
    21:00 +29°C° 0 mm 2 m/S 727 mmHg 63%
    22:00 +28°C° 0 mm 2 m/S 727 mmHg 65%
    23:00 +28°C° 0,1 mm 2 m/S 727 mmHg 66%

    Morgen, 18 Januar, Donnerstag

    Zeit Temperatur Niederschläge Wind Luftdruck Luftfeuchtigkeit
    00:00 +28°C° 0,1 mm 3 m/S 727 mmHg 68%
    01:00 +27°C° 0,1 mm 3 m/S 727 mmHg 69%
    02:00 +27°C° 0 mm 3 m/S 727 mmHg 70%
    03:00 +27°C° 0 mm 3 m/S 727 mmHg 71%
    04:00 +26°C° 0 mm 3 m/S 726 mmHg 72%
    05:00 +26°C° 0 mm 3 m/S 727 mmHg 72%
    06:00 +26°C° 0 mm 3 m/S 727 mmHg 72%
    07:00 +26°C° 0 mm 3 m/S 727 mmHg 72%
    08:00 +28°C° 0 mm 3 m/S 728 mmHg 66%
    09:00 +30°C° 0 mm 3 m/S 728 mmHg 60%
    10:00 +33°C° 0 mm 3 m/S 729 mmHg 54%
    11:00 +34°C° 0 mm 3 m/S 728 mmHg 49%
    12:00 +35°C° 0 mm 3 m/S 727 mmHg 45%
    13:00 +37°C° 0 mm 2 m/S 726 mmHg 40%
    14:00 +36°C° 0 mm 2 m/S 726 mmHg 42%
    15:00 +35°C° 0 mm 2 m/S 725 mmHg 43%
    16:00 +35°C° 0 mm 2 m/S 725 mmHg 45%
    17:00 +32°C° 0 mm 2 m/S 725 mmHg 49%
    18:00 +31°C° 0 mm 1 m/S 726 mmHg 53%
    19:00 +30°C° 0 mm 1 m/S 726 mmHg 57%
    20:00 +29°C° 0,4 mm 2 m/S 727 mmHg 63%
    21:00 +28°C° 0,4 mm 3 m/S 727 mmHg 68%
    22:00 +27°C° 0,4 mm 3 m/S 728 mmHg 74%
    23:00 +26°C° 0,3 mm 3 m/S 728 mmHg 76%

    übermorgen, 19 Januar, Freitag

    Zeit Temperatur Niederschläge Wind Luftdruck Luftfeuchtigkeit
    00:00 +26°C° 0,3 mm 3 m/S 727 mmHg 78%
    01:00 +26°C° 0,3 mm 3 m/S 727 mmHg 80%
    02:00 +25°C° 0,3 mm 2 m/S 727 mmHg 81%
    03:00 +25°C° 0,3 mm 2 m/S 727 mmHg 83%
    04:00 +25°C° 0,3 mm 2 m/S 727 mmHg 84%
    05:00 +25°C° 0,1 mm 2 m/S 727 mmHg 84%
    06:00 +25°C° 0,1 mm 2 m/S 728 mmHg 84%
    07:00 +25°C° 0,1 mm 2 m/S 728 mmHg 84%
    08:00 +27°C° 0 mm 2 m/S 729 mmHg 75%
    09:00 +29°C° 0 mm 3 m/S 729 mmHg 65%
    10:00 +31°C° 0 mm 3 m/S 729 mmHg 56%
    11:00 +33°C° 0 mm 3 m/S 729 mmHg 52%
    12:00 +34°C° 0 mm 3 m/S 728 mmHg 47%
    13:00 +36°C° 0 mm 3 m/S 727 mmHg 43%
    14:00 +35°C° 0,1 mm 2 m/S 727 mmHg 46%
    15:00 +34°C° 0,1 mm 2 m/S 726 mmHg 49%
    16:00 +32°C° 0,1 mm 2 m/S 725 mmHg 51%
    17:00 +31°C° 1 mm 2 m/S 726 mmHg 59%
    18:00 +29°C° 1 mm 1 m/S 726 mmHg 66%
    19:00 +28°C° 1 mm 1 m/S 726 mmHg 74%
    20:00 +27°C° 0,9 mm 1 m/S 727 mmHg 77%
    21:00 +27°C° 0,9 mm 1 m/S 728 mmHg 80%
    22:00 +26°C° 0,9 mm 1 m/S 728 mmHg 84%
    23:00 +26°C° 0,2 mm 1 m/S 728 mmHg 84%

    20 Januar, Samstag

    Zeit Temperatur Niederschläge Wind Luftdruck Luftfeuchtigkeit
    00:00 +26°C° 0,2 mm 1 m/S 728 mmHg 85%
    01:00 +25°C° 0,2 mm 1 m/S 727 mmHg 86%
    02:00 +25°C° 0,1 mm 2 m/S 727 mmHg 86%
    03:00 +25°C° 0,1 mm 2 m/S 727 mmHg 87%
    04:00 +24°C° 0,1 mm 2 m/S 727 mmHg 88%
    05:00 +24°C° 0 mm 2 m/S 727 mmHg 86%
    06:00 +25°C° 0 mm 2 m/S 728 mmHg 85%
    07:00 +25°C° 0 mm 2 m/S 728 mmHg 84%
    08:00 +27°C° 0 mm 2 m/S 728 mmHg 73%
    09:00 +30°C° 0 mm 2 m/S 729 mmHg 63%
    10:00 +32°C° 0 mm 2 m/S 729 mmHg 52%
    11:00 +34°C° 0 mm 1 m/S 728 mmHg 48%
    12:00 +35°C° 0 mm 1 m/S 727 mmHg 43%
    13:00 +37°C° 0 mm 1 m/S 727 mmHg 39%
    14:00 +36°C° 0 mm 1 m/S 726 mmHg 40%
    15:00 +36°C° 0 mm 1 m/S 726 mmHg 40%
    16:00 +35°C° 0 mm 1 m/S 725 mmHg 41%
    17:00 +33°C° 0 mm 1 m/S 725 mmHg 47%
    18:00 +32°C° 0 mm 1 m/S 726 mmHg 52%
    19:00 +30°C° 0 mm 1 m/S 726 mmHg 58%
    20:00 +29°C° 0,3 mm 1 m/S 727 mmHg 64%
    21:00 +28°C° 0,3 mm 1 m/S 727 mmHg 70%
    22:00 +26°C° 0,3 mm 1 m/S 727 mmHg 76%
    23:00 +26°C° 0,3 mm 1 m/S 727 mmHg 79%

    21 Januar, Sonntag

    Zeit Temperatur Niederschläge Wind Luftdruck Luftfeuchtigkeit
    00:00 +26°C° 0,3 mm 1 m/S 727 mmHg 82%
    01:00 +25°C° 0,3 mm 1 m/S 727 mmHg 85%
    02:00 +25°C° 0,1 mm 2 m/S 727 mmHg 85%
    03:00 +25°C° 0,1 mm 2 m/S 727 mmHg 86%
    04:00 +25°C° 0,1 mm 2 m/S 727 mmHg 86%
    05:00 +25°C° 0 mm 2 m/S 727 mmHg 85%
    06:00 +25°C° 0 mm 2 m/S 728 mmHg 84%
    07:00 +25°C° 0 mm 2 m/S 728 mmHg 83%
    08:00 +28°C° 0 mm 2 m/S 728 mmHg 73%
    09:00 +30°C° 0 mm 2 m/S 729 mmHg 62%
    10:00 +34°C° 0 mm 2 m/S 729 mmHg 52%
    11:00 +34°C° 0 mm 2 m/S 728 mmHg 49%
    12:00 +34°C° 0 mm 1 m/S 727 mmHg 46%
    13:00 +33°C° 0 mm 0 m/S 726 mmHg 43%
    14:00 +33°C° 0 mm 0 m/S 726 mmHg 44%
    15:00 +33°C° 0 mm 0 m/S 725 mmHg 45%
    16:00 +33°C° 0 mm 0 m/S 725 mmHg 45%
    17:00 +31°C° 0 mm 0 m/S 725 mmHg 49%
    18:00 +32°C° 0 mm 1 m/S 726 mmHg 53%
    19:00 +30°C° 0 mm 1 m/S 726 mmHg 57%
    20:00 +29°C° 0,8 mm 1 m/S 726 mmHg 65%
    21:00 +27°C° 0,8 mm 2 m/S 727 mmHg 73%
    22:00 +26°C° 0,8 mm 2 m/S 727 mmHg 81%
    23:00 +26°C° 0,3 mm 2 m/S 727 mmHg 82%

    22 Januar, Montag

    Zeit Temperatur Niederschläge Wind Luftdruck Luftfeuchtigkeit
    00:00 +26°C° 0,3 mm 2 m/S 727 mmHg 84%
    01:00 +25°C° 0,3 mm 2 m/S 727 mmHg 85%
    02:00 +25°C° 0,2 mm 2 m/S 727 mmHg 85%
    03:00 +25°C° 0,2 mm 2 m/S 727 mmHg 86%
    04:00 +25°C° 0,2 mm 2 m/S 727 mmHg 87%
    05:00 +25°C° 0,1 mm 2 m/S 727 mmHg 86%
    06:00 +25°C° 0,1 mm 2 m/S 728 mmHg 85%
    07:00 +25°C° 0,1 mm 2 m/S 728 mmHg 84%
    08:00 +28°C° 0 mm 3 m/S 728 mmHg 74%
    09:00 +30°C° 0 mm 3 m/S 728 mmHg 63%
    10:00 +34°C° 0 mm 3 m/S 728 mmHg 52%
    11:00 +35°C° 0 mm 2 m/S 728 mmHg 47%
    12:00 +37°C° 0 mm 2 m/S 727 mmHg 42%
    13:00 +37°C° 0 mm 1 m/S 726 mmHg 38%
    14:00 +36°C° 0 mm 1 m/S 725 mmHg 39%
    15:00 +36°C° 0 mm 1 m/S 725 mmHg 41%
    16:00 +35°C° 0 mm 1 m/S 724 mmHg 43%
    17:00 +33°C° 0 mm 1 m/S 725 mmHg 47%
    18:00 +32°C° 0 mm 1 m/S 725 mmHg 51%
    19:00 +30°C° 0 mm 1 m/S 725 mmHg 56%
    20:00 +29°C° 0,6 mm 2 m/S 726 mmHg 63%
    21:00 +28°C° 0,6 mm 2 m/S 726 mmHg 71%
    22:00 +26°C° 0,6 mm 3 m/S 727 mmHg 79%
    23:00 +26°C° 0,3 mm 2 m/S 727 mmHg 81%
    Mehr zeigen